Regional Weather Roundup
Issued by NWS

Home | Current Version | Previous Version | Graphics & Text | Print | Product List | Glossary On
Versions: 1 2 3 4 5 6 7 8 9 10 11 12 13 14 15 16 17 18 19 20 21 22 23 24 25 26 27 28 29 30 31 32 33 34 35 36 37 38 39 40 41 42 43 44 45 46 47 48 49 50
000
ASUS43 KLMK 270210
RWRKY
KENTUCKY REGIONAL WEATHER ROUNDUP
NATIONAL WEATHER SERVICE LOUISVILLE KY
1000 PM EDT WED JUL 26 2017

NOTE "FAIR" INDICATES FEW OR NO CLOUDS BELOW 12,000 FEET
WITH NO SIGNIFICANT WEATHER AND/OR OBSTRUCTIONS TO VISIBILITY.

KYZ001>023-026-027-061>063-070>075-270300-
WESTERN AND SOUTH CENTRAL KENTUCKY

CITY           SKY/WX    TMP DP  RH WIND       PRES   REMARKS
PADUCAH        CLOUDY    81  75  82 S3        30.00R
HENDERSON      CLOUDY    77  74  90 CALM      30.01R
OWENSBORO      CLOUDY    80  75  84 SE5       30.02S
HOPKINSVILLE   PTCLDY    83  76  78 CALM      30.03R HX  91
BOWLING GREEN  CLOUDY    85  75  72 NW3       30.03S HX  93
GLASGOW        NOT AVBL
$$

KYZ024-025-028>034-038-045-046-053-270300-
NORTH CENTRAL KENTUCKY

CITY           SKY/WX    TMP DP  RH WIND       PRES   REMARKS
LOUISVILLE/SDF CLOUDY    85  74  69 SW6       30.01R HX  92
LOUISVILLE/LOU CLOUDY    85  75  72 W3        30.01R HX  93
FORT KNOX      CLOUDY    79  71  77 W7        30.03R
$$

KYZ035>037-039>044-047>052-055>060-089>105-270300-
NORTHEAST KENTUCKY

CITY           SKY/WX    TMP DP  RH WIND       PRES   REMARKS
LEXINGTON      CLOUDY    82  69  64 SE5       30.04F
COVINGTON      CLOUDY    78  72  81 SE5       30.03F
FRANKFORT      CLOUDY    83  70  64 SE3       30.02S
$$

KYZ054-064>069-076>088-106>120-270300-
SOUTHEAST KENTUCKY

CITY           SKY/WX    TMP DP  RH WIND       PRES   REMARKS
JACKSON        CLOUDY    78  69  73 CALM      30.09S
LONDON         PTCLDY    79  70  74 CALM      30.08S
SOMERSET       CLOUDY    77  70  78 CALM      30.07S
MIDDLESBORO    CLEAR     77  72  84 W3        30.10R
MONTICELLO     PTCLDY    74  73  97 VRB7      30.07F
$$





USA.gov is the U.S. government's official web portal to all federal, state and local government web resources and services.